BLY2120 EGCC-EGPH

Flight info

Callsign BLY2120
Flight time 0h 47m
Altitude 22000
Route DESIG DCT DOMIG DCT ULSAX N601 INPIP
Aircraft A320/M-VGDW/C

Departure

Time 2026-05-04 14:41
Airport Manchester Airport (EGCC)

Arrival

Time 2026-05-04 15:29
Airport Edinburgh Airport (EGPH)
Time Latitude Longitude Altitude Speed Heading
2026-05-04 14:06 53.36767 -2.28775 255 ft 0 kts 315°
2026-05-04 14:29 53.36738 -2.28721 255 ft 4 kts 307°
2026-05-04 14:30 53.36723 -2.28684 255 ft 4 kts 294°
2026-05-04 14:30 53.36717 -2.28644 255 ft 4 kts 249°
2026-05-04 14:30 53.36724 -2.28626 255 ft 0 kts 225°
2026-05-04 14:34 53.36713 -2.28645 255 ft 6 kts 225°
2026-05-04 14:34 53.36669 -2.28718 255 ft 12 kts 225°
2026-05-04 14:34 53.36594 -2.28773 255 ft 14 kts 155°
2026-05-04 14:34 53.36517 -2.28653 255 ft 17 kts 135°
2026-05-04 14:35 53.36430 -2.28505 255 ft 12 kts 134°
2026-05-04 14:35 53.36403 -2.28419 255 ft 9 kts 112°
2026-05-04 14:35 53.36369 -2.28326 255 ft 10 kts 134°
2026-05-04 14:35 53.36313 -2.28231 255 ft 13 kts 135°
2026-05-04 14:36 53.36242 -2.28112 255 ft 16 kts 135°
2026-05-04 14:36 53.36152 -2.27967 255 ft 20 kts 142°
2026-05-04 14:36 53.36036 -2.27818 255 ft 17 kts 141°
2026-05-04 14:36 53.35919 -2.27730 255 ft 20 kts 180°
2026-05-04 14:37 53.35842 -2.27737 253 ft 12 kts 179°
2026-05-04 14:37 53.35788 -2.27703 251 ft 8 kts 138°
2026-05-04 14:37 53.35727 -2.27638 248 ft 14 kts 160°
2026-05-04 14:37 53.35627 -2.27531 246 ft 19 kts 141°
2026-05-04 14:38 53.35578 -2.27467 245 ft 0 kts 141°
2026-05-04 14:38 53.35576 -2.27464 245 ft 2 kts 140°
2026-05-04 14:38 53.35552 -2.27431 246 ft 7 kts 140°
2026-05-04 14:39 53.35501 -2.27360 248 ft 12 kts 140°
2026-05-04 14:39 53.35415 -2.27243 246 ft 20 kts 140°
2026-05-04 14:39 53.35292 -2.27207 241 ft 7 kts 194°
2026-05-04 14:40 53.35097 -2.27269 228 ft 21 kts 192°
2026-05-04 14:40 53.34971 -2.27400 225 ft 23 kts 231°
2026-05-04 14:40 53.34816 -2.27720 223 ft 68 kts 230°
2026-05-04 14:40 53.34340 -2.28701 224 ft 146 kts 231°
2026-05-04 14:41 53.33618 -2.30198 677 ft 171 kts 231°
2026-05-04 14:41 53.32872 -2.31766 1612 ft 177 kts 233°
2026-05-04 14:41 53.31978 -2.35990 2452 ft 222 kts 277°
2026-05-04 14:42 53.33837 -2.40405 3516 ft 257 kts 336°
2026-05-04 14:42 53.35539 -2.41421 4411 ft 261 kts 341°
2026-05-04 14:42 53.37273 -2.42356 4846 ft 265 kts 342°
2026-05-04 14:43 53.39034 -2.43278 5000 ft 265 kts 342°
2026-05-04 14:43 53.40789 -2.44193 5656 ft 269 kts 342°
2026-05-04 14:43 53.41996 -2.44830 6290 ft 270 kts 342°
2026-05-04 14:43 53.44454 -2.45568 7344 ft 277 kts
2026-05-04 14:44 53.45735 -2.45122 7900 ft 280 kts 20°
2026-05-04 14:44 53.47390 -2.43400 8713 ft 285 kts 44°
2026-05-04 14:44 53.48498 -2.40645 9522 ft 290 kts 69°
2026-05-04 14:44 53.48823 -2.37377 10266 ft 295 kts 94°
2026-05-04 14:45 53.48464 -2.33959 10999 ft 298 kts 99°
2026-05-04 14:45 53.48418 -2.30468 11675 ft 305 kts 81°
2026-05-04 14:45 53.48960 -2.26890 11878 ft 328 kts 73°
2026-05-04 14:45 53.49579 -2.23106 12312 ft 341 kts 76°
2026-05-04 14:46 53.50033 -2.19165 12983 ft 346 kts 81°
2026-05-04 14:46 53.50347 -2.15126 13696 ft 351 kts 83°
2026-05-04 14:46 53.50634 -2.11043 14346 ft 354 kts 83°
2026-05-04 14:46 53.50950 -2.06917 14997 ft 357 kts 82°
2026-05-04 14:47 53.51310 -2.02769 15630 ft 361 kts 81°
2026-05-04 14:47 53.51715 -1.98590 16273 ft 364 kts 80°
2026-05-04 14:47 53.52159 -1.94400 16903 ft 366 kts 77°
2026-05-04 14:47 53.53160 -1.90474 17507 ft 370 kts 53°
2026-05-04 14:48 53.55031 -1.87659 18088 ft 372 kts 28°
2026-05-04 14:48 53.57486 -1.86404 18625 ft 374 kts
2026-05-04 14:48 53.60038 -1.87018 19130 ft 376 kts 338°
2026-05-04 14:48 53.62219 -1.89407 19641 ft 379 kts 314°
2026-05-04 14:49 53.63982 -1.92694 20150 ft 382 kts 313°
2026-05-04 14:49 53.65768 -1.95849 20675 ft 385 kts 315°
2026-05-04 14:49 53.67730 -1.99142 21221 ft 388 kts 316°
2026-05-04 14:49 53.69668 -2.02348 21740 ft 392 kts 316°
2026-05-04 14:50 53.71613 -2.05589 22011 ft 394 kts 316°
2026-05-04 14:50 53.73597 -2.08701 22056 ft 381 kts 323°
2026-05-04 14:50 53.75783 -2.11113 22059 ft 373 kts 334°
2026-05-04 14:50 53.78113 -2.12842 22065 ft 370 kts 339°
2026-05-04 14:51 53.80500 -2.14470 22062 ft 370 kts 339°
2026-05-04 14:51 53.82887 -2.16099 22059 ft 370 kts 339°
2026-05-04 14:51 53.85261 -2.17719 22059 ft 370 kts 339°
2026-05-04 14:51 53.87657 -2.19357 22060 ft 370 kts 339°
2026-05-04 14:52 53.90023 -2.20982 22058 ft 370 kts 339°
2026-05-04 14:52 53.92426 -2.22638 22061 ft 370 kts 339°
2026-05-04 14:52 53.94806 -2.24281 22054 ft 370 kts 339°
2026-05-04 14:52 53.97188 -2.25926 22057 ft 370 kts 339°
2026-05-04 14:53 53.99573 -2.27573 22062 ft 369 kts 339°
2026-05-04 14:53 54.01949 -2.29211 22077 ft 368 kts 339°
2026-05-04 14:53 54.04322 -2.30841 22069 ft 367 kts 339°
2026-05-04 14:53 54.06688 -2.32466 22069 ft 367 kts 339°
2026-05-04 14:54 54.09048 -2.34091 22068 ft 366 kts 339°
2026-05-04 14:54 54.11416 -2.35731 22065 ft 366 kts 339°
2026-05-04 14:54 54.13760 -2.37361 22062 ft 366 kts 338°
2026-05-04 14:54 54.16121 -2.39005 22057 ft 366 kts 339°
2026-05-04 14:55 54.18474 -2.40646 22057 ft 366 kts 339°
2026-05-04 14:55 54.20831 -2.42288 22055 ft 366 kts 339°
2026-05-04 14:55 54.23186 -2.43929 22050 ft 365 kts 338°
2026-05-04 14:55 54.25537 -2.45565 22054 ft 365 kts 338°
2026-05-04 14:56 54.27883 -2.47197 22059 ft 364 kts 338°
2026-05-04 14:56 54.30173 -2.48794 22071 ft 363 kts 339°
2026-05-04 14:56 54.32569 -2.50468 22049 ft 363 kts 338°
2026-05-04 14:56 54.34905 -2.52105 22048 ft 363 kts 338°
2026-05-04 14:57 54.37241 -2.53745 22043 ft 363 kts 338°
2026-05-04 14:57 54.39574 -2.55381 22046 ft 363 kts 338°
2026-05-04 14:57 54.41908 -2.57017 22051 ft 363 kts 338°
2026-05-04 14:57 54.44207 -2.58635 22045 ft 363 kts 338°
2026-05-04 14:58 54.46545 -2.60285 22040 ft 363 kts 338°
2026-05-04 14:58 54.48885 -2.61932 22046 ft 363 kts 338°
2026-05-04 14:58 54.51217 -2.63578 22052 ft 362 kts 338°
2026-05-04 14:58 54.53547 -2.65229 22051 ft 362 kts 338°
2026-05-04 14:59 54.55874 -2.66882 22048 ft 362 kts 338°
2026-05-04 14:59 54.58202 -2.68536 22043 ft 362 kts 338°
2026-05-04 14:59 54.62833 -2.71851 22035 ft 360 kts 338°
2026-05-04 15:00 54.65146 -2.73493 22034 ft 360 kts 338°
2026-05-04 15:00 54.67463 -2.75134 22032 ft 360 kts 338°
2026-05-04 15:00 54.69778 -2.76776 22032 ft 360 kts 338°
2026-05-04 15:01 54.74410 -2.80082 22041 ft 360 kts 337°
2026-05-04 15:01 54.76725 -2.81743 22039 ft 360 kts 337°
2026-05-04 15:01 54.79039 -2.83409 22037 ft 360 kts 336°
2026-05-04 15:01 54.81349 -2.85073 22039 ft 360 kts 336°
2026-05-04 15:02 54.83590 -2.86688 22044 ft 360 kts 336°
2026-05-04 15:02 54.85888 -2.88343 22043 ft 360 kts 337°
2026-05-04 15:02 54.88225 -2.90031 22040 ft 360 kts 337°
2026-05-04 15:02 54.90511 -2.91680 22044 ft 360 kts 336°
2026-05-04 15:03 54.92820 -2.93343 22040 ft 359 kts 337°
2026-05-04 15:03 54.95129 -2.95008 22034 ft 361 kts 337°
2026-05-04 15:03 54.97456 -2.96691 22045 ft 363 kts 336°
2026-05-04 15:03 54.99788 -2.98384 22038 ft 362 kts 336°
2026-05-04 15:04 55.02105 -3.00069 22034 ft 358 kts 336°
2026-05-04 15:04 55.04360 -3.01709 21910 ft 346 kts 336°
2026-05-04 15:04 55.06556 -3.03304 21627 ft 339 kts 336°
2026-05-04 15:04 55.08714 -3.04874 21302 ft 334 kts 336°
2026-05-04 15:05 55.10847 -3.06432 20871 ft 332 kts 336°
2026-05-04 15:05 55.12980 -3.07993 20387 ft 332 kts 335°
2026-05-04 15:05 55.15108 -3.09553 20025 ft 332 kts 335°
2026-05-04 15:05 55.17235 -3.11113 19638 ft 330 kts 335°
2026-05-04 15:06 55.19348 -3.12660 19265 ft 328 kts 335°
2026-05-04 15:06 55.21444 -3.14198 18915 ft 325 kts 335°
2026-05-04 15:06 55.23526 -3.15727 18554 ft 324 kts 335°
2026-05-04 15:07 55.27604 -3.18723 17949 ft 315 kts 335°
2026-05-04 15:07 55.29656 -3.19848 17560 ft 316 kts 347°
2026-05-04 15:07 55.31794 -3.20125 17185 ft 318 kts 360°
2026-05-04 15:07 55.34029 -3.19793 16808 ft 317 kts
2026-05-04 15:08 55.36220 -3.19444 16438 ft 315 kts
2026-05-04 15:08 55.38388 -3.19103 15853 ft 313 kts
2026-05-04 15:08 55.40511 -3.18773 15381 ft 311 kts
2026-05-04 15:08 55.42595 -3.18446 14945 ft 308 kts
2026-05-04 15:09 55.44726 -3.18114 14486 ft 307 kts
2026-05-04 15:09 55.46844 -3.17781 14049 ft 305 kts
2026-05-04 15:09 55.48950 -3.17449 13604 ft 303 kts
2026-05-04 15:10 55.53110 -3.16795 12633 ft 298 kts
2026-05-04 15:10 55.55169 -3.16468 12142 ft 296 kts
2026-05-04 15:10 55.59221 -3.15831 11204 ft 293 kts
2026-05-04 15:11 55.61244 -3.15511 10764 ft 291 kts
2026-05-04 15:11 55.63231 -3.15195 10337 ft 289 kts
2026-05-04 15:11 55.65250 -3.14874 9837 ft 288 kts
2026-05-04 15:11 55.67238 -3.14561 9422 ft 283 kts
2026-05-04 15:12 55.69146 -3.14255 9263 ft 269 kts
2026-05-04 15:12 55.70986 -3.13962 8898 ft 263 kts
2026-05-04 15:12 55.72792 -3.13678 8450 ft 261 kts
2026-05-04 15:12 55.74592 -3.13384 7989 ft 259 kts
2026-05-04 15:13 55.76340 -3.12565 7535 ft 261 kts 19°
2026-05-04 15:13 55.77971 -3.11142 7083 ft 261 kts 23°
2026-05-04 15:13 55.79587 -3.09686 6621 ft 259 kts 23°
2026-05-04 15:13 55.81186 -3.08256 6178 ft 257 kts 23°
2026-05-04 15:14 55.82785 -3.06823 5732 ft 255 kts 24°
2026-05-04 15:14 55.84358 -3.05424 5280 ft 252 kts 19°
2026-05-04 15:14 55.86004 -3.04492 4818 ft 246 kts
2026-05-04 15:14 55.87680 -3.03971 4365 ft 243 kts
2026-05-04 15:15 55.89360 -3.03448 4002 ft 250 kts
2026-05-04 15:15 55.91127 -3.02908 4000 ft 261 kts
2026-05-04 15:15 55.92902 -3.02384 4003 ft 262 kts
2026-05-04 15:16 55.96507 -3.01317 4001 ft 263 kts
2026-05-04 15:16 55.98320 -3.00770 3674 ft 260 kts
2026-05-04 15:16 56.01824 -2.99700 3012 ft 250 kts
2026-05-04 15:17 56.03479 -2.99182 2992 ft 232 kts
2026-05-04 15:17 56.06543 -2.98196 2994 ft 222 kts
2026-05-04 15:17 56.08069 -2.97718 2994 ft 225 kts
2026-05-04 15:18 56.09622 -2.97229 2995 ft 228 kts
2026-05-04 15:18 56.11187 -2.96725 2993 ft 229 kts
2026-05-04 15:18 56.12755 -2.96227 2990 ft 229 kts
2026-05-04 15:19 56.15119 -2.92553 2982 ft 241 kts 73°
2026-05-04 15:19 56.15177 -2.89565 2983 ft 243 kts 107°
2026-05-04 15:19 56.12994 -2.85338 2985 ft 236 kts 158°
2026-05-04 15:20 56.11563 -2.84082 2991 ft 221 kts 159°
2026-05-04 15:20 56.10204 -2.83005 2973 ft 204 kts 171°
2026-05-04 15:20 56.08890 -2.83107 2977 ft 185 kts 211°
2026-05-04 15:20 56.08003 -2.84590 2980 ft 173 kts 249°
2026-05-04 15:21 56.07616 -2.86612 2989 ft 171 kts 258°
2026-05-04 15:21 56.07351 -2.88688 2986 ft 171 kts 259°
2026-05-04 15:21 56.06874 -2.92618 3010 ft 154 kts 259°
2026-05-04 15:22 56.06651 -2.94472 2994 ft 151 kts 260°
2026-05-04 15:22 56.06427 -2.96309 2987 ft 152 kts 259°
2026-05-04 15:22 56.05979 -3.00009 2994 ft 151 kts 260°
2026-05-04 15:23 56.05750 -3.01842 2997 ft 151 kts 260°
2026-05-04 15:23 56.05514 -3.03675 2998 ft 150 kts 260°
2026-05-04 15:23 56.05277 -3.05501 3002 ft 150 kts 259°
2026-05-04 15:23 56.04954 -3.07279 3002 ft 153 kts 247°
2026-05-04 15:24 56.03938 -3.10625 3003 ft 152 kts 244°
2026-05-04 15:24 56.02863 -3.13888 2916 ft 153 kts 244°
2026-05-04 15:25 56.02321 -3.15510 2754 ft 150 kts 243°
2026-05-04 15:25 56.01787 -3.17105 2562 ft 150 kts 243°
2026-05-04 15:25 56.01255 -3.18692 2369 ft 153 kts 243°
2026-05-04 15:26 56.00166 -3.21930 1948 ft 151 kts 243°
2026-05-04 15:26 55.99640 -3.23495 1756 ft 150 kts 243°
2026-05-04 15:26 55.98575 -3.26655 1340 ft 143 kts 243°
2026-05-04 15:27 55.98079 -3.28123 1148 ft 134 kts 243°
2026-05-04 15:27 55.97120 -3.30989 784 ft 133 kts 243°
2026-05-04 15:28 55.96149 -3.33855 409 ft 138 kts 241°
2026-05-04 15:28 55.95649 -3.35316 196 ft 138 kts 241°
2026-05-04 15:28 55.94826 -3.37761 114 ft 70 kts 239°
2026-05-04 15:29 55.94688 -3.38043 114 ft 15 kts 165°
2026-05-04 15:30 55.94610 -3.37827 113 ft 0 kts 60°
2026-05-04 15:30 55.94662 -3.37673 115 ft 15 kts 59°
2026-05-04 15:31 55.94827 -3.37180 114 ft 26 kts 58°
2026-05-04 15:31 55.94879 -3.37039 113 ft 14 kts 58°
2026-05-04 15:32 55.94914 -3.36699 113 ft 16 kts 61°
2026-05-04 15:32 55.95011 -3.36293 113 ft 15 kts 112°
2026-05-04 15:33 55.94995 -3.36232 114 ft 1 kts 116°
2026-05-04 15:34 55.94994 -3.36232 114 ft 0 kts 116°